Starlink 36169

operational
NORAD ID: 66929 Int'l Des: 2025-286 Owner: SPXS Country: US Constellation: starlink
LEOCIRCULAR

关于 Starlink 36169

正在加载描述...

实时位置

正在加载3D地球...

即将过境

高度历史

Altitude vs Time

uPlot chart will show altitude changes over time

两行轨道根数

1 66929U 25286E 25347.58336806 -.01221770 45663-3 -29590-2 0 9991
2 66929 53.1573 46.4375 0001025 53.2502 232.4931 15.95696279 2120
Epoch: Dec 13, 2025 • Age: 18 hours

当前状态

高度 303.0 km
速度 7.73 km/s
星下点 -34.78°S, 53.63°E
发射日期 Dec 7, 2025
运行时间 6 days
类型 internet

技术详情

分类 Payload
质量 575.00 kg
干质量 530.00 kg
总质量 575.00 kg
长度 0.30 m
直径 4.10 m
跨度 29.00 m
形状 Box + pan
制造商 SPXS
平台类型 Starlink V2MO
阶段状态 In Orbit
所有者/国家 SPXS/US

大型星座

Loading constellations...